Location: ???????
(55.4362°N, 38.1183°E)
Time: 05:31:12
(UTC+00:00)

Nauka - Pass Details

Date: 30 September 2021
Orbit: 417 x 423 km, 51.6° (Epoch: 23 October)

Event Time Altitude Azimuth Distance (km) Brightness Sun altitude
Rises 15:53:08 0° 269° (W) 2,364 ? -7.6°
Reaches altitude 10° 15:55:19 10° 261° (W) 1,500 ? -7.9°
Maximum altitude 15:58:27 36° 193° (SSW) 682 ? -8.3°
Drops below altitude 10° 16:01:34 10° 125° (SE) 1,500 ? -8.8°
Enters shadow 16:01:38 10° 125° (SE) 1,523 ? -8.8°
